Terminal Aerodrome Forecast
Issued by NWS

Home | Current Version | Previous Version | Text Only | Print | Product List | Glossary On
Versions: 1 2 3 4 5 6 7 8 9 10 11 12 13 14 15 16 17 18 19 20
000
FTUS44 KHGX 250550 RRA
TAFCXO
TAF
KCXO 250550Z 2506/2606 VRB02KT P6SM VCSH SCT070
     FM250800 VRB02KT 3SM BR BCFG FEW040
     FM251500 06004KT P6SM SCT015
     FM251700 10007KT P6SM SKC
     FM260100 14005KT P6SM SKC=

USA.gov is the U.S. government's official web portal to all federal, state and local government web resources and services.